Time,TemperatureF,DewpointF,PressureIn,WindDirection,WindDirectionDegrees,WindSpeedMPH,WindSpeedGustMPH,Humidity,HourlyPrecipIn,Conditions,Clouds,dailyrainin,SoftwareType,DateUTC
2013-03-15 00:02:00,28.0,26.0,30.03,WSW,248,1.0,2.0,93,0.00,,,0.00,,2013-03-15 05:02:00,
2013-03-15 00:12:00,28.0,26.0,30.03,WSW,248,1.0,2.0,93,0.00,,,0.00,,2013-03-15 05:12:00,
2013-03-15 00:22:00,28.0,26.0,30.02,WNW,288,1.0,3.0,93,0.00,,,0.00,,2013-03-15 05:22:00,
2013-03-15 00:32:00,28.0,26.0,30.02,WNW,288,1.0,3.0,93,0.00,,,0.00,,2013-03-15 05:32:00,
2013-03-15 00:42:00,28.0,26.0,30.02,WNW,288,1.0,3.0,93,0.00,,,0.00,,2013-03-15 05:42:00,
2013-03-15 00:52:00,28.0,27.0,30.01,WNW,292,2.0,6.0,94,0.00,,,0.00,,2013-03-15 05:52:00,
2013-03-15 01:02:00,28.0,27.0,30.00,WSW,255,2.0,4.0,94,0.00,,,0.00,,2013-03-15 06:02:00,
2013-03-15 01:12:00,28.0,27.0,30.00,WSW,255,2.0,4.0,94,0.00,,,0.00,,2013-03-15 06:12:00,
2013-03-15 01:22:00,28.0,27.0,30.00,WSW,245,2.0,4.0,94,0.00,,,0.00,,2013-03-15 06:22:00,
2013-03-15 01:32:00,28.0,27.0,29.99,West,263,2.0,5.0,94,0.00,,,0.00,,2013-03-15 06:32:00,
2013-03-15 01:42:00,28.0,27.0,29.99,West,263,2.0,5.0,94,0.00,,,0.00,,2013-03-15 06:42:00,
2013-03-15 01:53:00,28.0,27.0,29.99,WSW,248,2.0,6.0,95,0.00,,,0.00,,2013-03-15 06:53:00,
2013-03-15 02:02:00,29.0,27.0,29.98,West,274,3.0,8.0,94,0.00,,,0.00,,2013-03-15 07:02:00,
2013-03-15 02:12:00,29.0,27.0,29.98,West,274,3.0,8.0,94,0.00,,,0.00,,2013-03-15 07:12:00,
2013-03-15 02:22:00,29.0,27.0,29.98,WSW,248,3.0,8.0,94,0.00,,,0.00,,2013-03-15 07:22:00,
2013-03-15 02:32:00,29.0,27.0,29.97,West,260,1.0,6.0,93,0.00,,,0.00,,2013-03-15 07:32:00,
2013-03-15 02:42:00,29.0,27.0,29.97,West,260,1.0,6.0,93,0.00,,,0.00,,2013-03-15 07:42:00,
2013-03-15 02:52:00,29.0,27.0,29.97,WNW,287,1.0,3.0,94,0.00,,,0.00,,2013-03-15 07:52:00,
2013-03-15 03:02:00,29.0,27.0,29.97,WSW,253,1.0,3.0,93,0.00,,,0.00,,2013-03-15 08:02:00,
2013-03-15 03:12:00,29.0,27.0,29.97,WSW,253,1.0,3.0,93,0.00,,,0.00,,2013-03-15 08:12:00,
2013-03-15 03:22:00,29.0,27.0,29.96,WNW,283,1.0,2.0,93,0.00,,,0.00,,2013-03-15 08:22:00,
2013-03-15 03:32:00,29.0,27.0,29.95,WNW,287,1.0,2.0,93,0.00,,,0.00,,2013-03-15 08:32:00,
2013-03-15 03:42:00,29.0,27.0,29.95,WNW,287,1.0,2.0,93,0.00,,,0.00,,2013-03-15 08:42:00,
2013-03-15 03:52:00,29.0,27.0,29.95,West,281,1.0,4.0,94,0.00,,,0.00,,2013-03-15 08:52:00,
2013-03-15 04:02:00,29.0,27.0,29.94,WSW,257,1.0,2.0,94,0.00,,,0.00,,2013-03-15 09:02:00,
2013-03-15 04:12:00,29.0,27.0,29.94,WSW,257,1.0,2.0,94,0.00,,,0.00,,2013-03-15 09:12:00,
2013-03-15 04:22:00,29.0,27.0,29.94,WSW,241,0.0,2.0,94,0.00,,,0.00,,2013-03-15 09:22:00,
2013-03-15 04:33:00,28.0,27.0,29.93,WSW,241,0.0,1.0,94,0.00,,,0.00,,2013-03-15 09:33:00,
2013-03-15 04:43:00,28.0,27.0,29.93,WSW,241,0.0,1.0,94,0.00,,,0.00,,2013-03-15 09:43:00,
2013-03-15 04:53:00,28.0,27.0,29.93,WSW,255,0.0,1.0,94,0.00,,,0.00,,2013-03-15 09:53:00,
2013-03-15 05:02:00,28.0,27.0,29.93,WSW,255,0.0,1.0,94,0.00,,,0.00,,2013-03-15 10:02:00,
2013-03-15 05:12:00,28.0,27.0,29.93,WSW,255,0.0,1.0,94,0.00,,,0.00,,2013-03-15 10:12:00,
2013-03-15 05:23:00,29.0,27.0,29.92,West,273,0.0,3.0,94,0.00,,,0.00,,2013-03-15 10:23:00,
2013-03-15 05:32:00,29.0,27.0,29.92,WSW,248,1.0,3.0,94,0.00,,,0.00,,2013-03-15 10:32:00,
2013-03-15 05:43:00,29.0,27.0,29.92,WSW,248,1.0,3.0,94,0.00,,,0.00,,2013-03-15 10:43:00,
2013-03-15 05:52:00,29.0,27.0,29.92,WSW,245,0.0,3.0,94,0.00,,,0.00,,2013-03-15 10:52:00,
2013-03-15 06:02:00,29.0,27.0,29.92,WSW,245,0.0,3.0,94,0.00,,,0.00,,2013-03-15 11:02:00,
2013-03-15 06:12:00,29.0,27.0,29.92,WSW,245,0.0,3.0,94,0.00,,,0.00,,2013-03-15 11:12:00,
2013-03-15 06:22:00,29.0,27.0,29.92,WSW,241,2.0,2.0,94,0.00,,,0.00,,2013-03-15 11:22:00,
2013-03-15 06:32:00,29.0,27.0,29.92,SW,233,2.0,4.0,94,0.00,,,0.00,,2013-03-15 11:32:00,
2013-03-15 06:42:00,29.0,27.0,29.92,SW,233,2.0,4.0,94,0.00,,,0.00,,2013-03-15 11:42:00,
2013-03-15 06:52:00,29.0,27.0,29.91,WNW,297,0.0,2.0,94,0.00,,,0.00,,2013-03-15 11:52:00,
2013-03-15 07:02:00,29.0,27.0,29.91,West,276,0.0,2.0,94,0.00,,,0.00,,2013-03-15 12:02:00,
2013-03-15 07:12:00,29.0,28.0,29.91,West,280,1.0,3.0,95,0.00,,,0.00,,2013-03-15 12:12:00,
2013-03-15 07:23:00,29.0,28.0,29.91,West,280,1.0,3.0,95,0.00,,,0.00,,2013-03-15 12:23:00,
2013-03-15 07:32:00,29.0,28.0,29.91,West,280,1.0,3.0,95,0.00,,,0.00,,2013-03-15 12:32:00,
2013-03-15 07:42:00,29.0,28.0,29.91,West,280,1.0,3.0,95,0.00,,,0.00,,2013-03-15 12:42:00,
2013-03-15 07:52:00,29.0,27.0,29.91,WSW,249,1.0,3.0,94,0.00,,,0.00,,2013-03-15 12:52:00,
2013-03-15 08:02:00,29.0,27.0,29.91,WNW,293,1.0,3.0,94,0.00,,,0.00,,2013-03-15 13:02:00,
2013-03-15 08:12:00,29.0,27.0,29.91,WNW,293,1.0,3.0,94,0.00,,,0.00,,2013-03-15 13:12:00,
2013-03-15 08:22:00,29.0,27.0,29.91,West,271,2.0,4.0,94,0.00,,,0.00,,2013-03-15 13:22:00,
2013-03-15 08:32:00,30.0,28.0,29.91,NW,308,1.0,5.0,94,0.00,,,0.00,,2013-03-15 13:32:00,
2013-03-15 08:42:00,30.0,28.0,29.91,NW,308,1.0,5.0,94,0.00,,,0.00,,2013-03-15 13:42:00,
2013-03-15 08:52:00,30.0,28.0,29.91,West,269,2.0,6.0,93,0.00,,,0.00,,2013-03-15 13:52:00,
2013-03-15 09:02:00,30.0,28.0,29.91,West,269,2.0,6.0,93,0.00,,,0.00,,2013-03-15 14:02:00,
2013-03-15 09:12:00,30.0,28.0,29.91,West,269,2.0,6.0,93,0.00,,,0.00,,2013-03-15 14:12:00,
2013-03-15 09:22:00,31.0,29.0,29.90,WNW,297,2.0,5.0,92,0.00,,,0.00,,2013-03-15 14:22:00,
2013-03-15 09:32:00,31.0,29.0,29.90,WNW,297,2.0,5.0,92,0.00,,,0.00,,2013-03-15 14:32:00,
2013-03-15 09:42:00,31.0,29.0,29.90,WNW,297,2.0,5.0,92,0.00,,,0.00,,2013-03-15 14:42:00,
2013-03-15 09:53:00,32.0,29.0,29.90,WNW,287,2.0,4.0,90,0.00,,,0.00,,2013-03-15 14:53:00,
2013-03-15 10:02:00,32.0,29.0,29.89,WNW,300,2.0,5.0,88,0.00,,,0.00,,2013-03-15 15:02:00,
2013-03-15 10:13:00,32.0,29.0,29.89,WNW,300,2.0,5.0,88,0.00,,,0.00,,2013-03-15 15:13:00,
2013-03-15 10:22:00,33.0,29.0,29.89,WNW,299,1.0,6.0,86,0.00,,,0.00,,2013-03-15 15:22:00,
2013-03-15 10:33:00,34.0,30.0,29.88,NNW,330,1.0,3.0,85,0.00,,,0.00,,2013-03-15 15:33:00,
2013-03-15 10:42:00,34.0,30.0,29.89,WNW,299,2.0,6.0,84,0.00,,,0.00,,2013-03-15 15:42:00,
2013-03-15 10:53:00,34.0,30.0,29.89,WNW,299,2.0,6.0,84,0.00,,,0.00,,2013-03-15 15:53:00,
2013-03-15 11:02:00,34.0,29.0,29.89,NW,311,2.0,5.0,83,0.00,,,0.00,,2013-03-15 16:02:00,
2013-03-15 11:12:00,35.0,30.0,29.88,NW,319,1.0,5.0,82,0.00,,,0.00,,2013-03-15 16:12:00,
2013-03-15 11:22:00,35.0,30.0,29.88,NW,319,1.0,5.0,82,0.00,,,0.00,,2013-03-15 16:22:00,
2013-03-15 11:32:00,36.0,30.0,29.88,NNW,343,2.0,4.0,80,0.00,,,0.00,,2013-03-15 16:32:00,
2013-03-15 11:42:00,36.0,30.0,29.88,NNW,343,2.0,4.0,80,0.00,,,0.00,,2013-03-15 16:42:00,
2013-03-15 11:52:00,36.0,30.0,29.88,NNE,26,1.0,3.0,80,0.00,,,0.00,,2013-03-15 16:52:00,
2013-03-15 12:02:00,36.0,30.0,29.88,ENE,75,1.0,4.0,79,0.00,,,0.00,,2013-03-15 17:02:00,
2013-03-15 12:12:00,36.0,30.0,29.88,ENE,75,1.0,4.0,79,0.00,,,0.00,,2013-03-15 17:12:00,
2013-03-15 12:22:00,36.0,31.0,29.89,North,359,1.0,4.0,81,0.00,,,0.00,,2013-03-15 17:22:00,
2013-03-15 12:32:00,37.0,32.0,29.89,ESE,122,0.0,2.0,81,0.00,,,0.00,,2013-03-15 17:32:00,
2013-03-15 12:42:00,37.0,32.0,29.89,ESE,122,0.0,2.0,81,0.00,,,0.00,,2013-03-15 17:42:00,
2013-03-15 12:53:00,37.0,31.0,29.89,WSW,255,1.0,2.0,80,0.00,,,0.00,,2013-03-15 17:53:00,
2013-03-15 13:02:00,37.0,32.0,29.88,ENE,65,3.0,4.0,81,0.00,,,0.00,,2013-03-15 18:02:00,
2013-03-15 13:12:00,37.0,32.0,29.88,ENE,65,3.0,4.0,81,0.00,,,0.00,,2013-03-15 18:12:00,
2013-03-15 13:22:00,36.0,31.0,29.89,East,91,3.0,6.0,83,0.00,,,0.00,,2013-03-15 18:22:00,
2013-03-15 13:32:00,36.0,31.0,29.89,East,91,3.0,6.0,83,0.00,,,0.00,,2013-03-15 18:32:00,
2013-03-15 13:42:00,36.0,31.0,29.89,East,91,3.0,6.0,83,0.00,,,0.00,,2013-03-15 18:42:00,
2013-03-15 13:52:00,35.0,32.0,29.89,East,87,3.0,5.0,87,0.01,,,0.01,,2013-03-15 18:52:00,
2013-03-15 14:02:00,35.0,32.0,29.89,ENE,68,2.0,4.0,89,0.01,,,0.01,,2013-03-15 19:02:00,
2013-03-15 14:12:00,35.0,32.0,29.89,ENE,68,2.0,4.0,89,0.01,,,0.01,,2013-03-15 19:12:00,
2013-03-15 14:22:00,34.0,32.0,29.88,ENE,68,3.0,5.0,91,0.01,,,0.01,,2013-03-15 19:22:00,
2013-03-15 14:32:00,34.0,32.0,29.88,ENE,68,5.0,9.0,91,0.02,,,0.02,,2013-03-15 19:32:00,
2013-03-15 14:42:00,34.0,32.0,29.88,ENE,68,5.0,9.0,91,0.02,,,0.02,,2013-03-15 19:42:00,
2013-03-15 14:52:00,34.0,32.0,29.87,East,80,4.0,7.0,92,0.01,,,0.02,,2013-03-15 19:52:00,
2013-03-15 15:02:00,34.0,32.0,29.87,ENE,74,4.0,6.0,92,0.01,,,0.02,,2013-03-15 20:02:00,
2013-03-15 15:12:00,34.0,32.0,29.87,ENE,74,4.0,6.0,92,0.01,,,0.02,,2013-03-15 20:12:00,
2013-03-15 15:22:00,34.0,32.0,29.86,East,82,3.0,6.0,93,0.01,,,0.02,,2013-03-15 20:22:00,
2013-03-15 15:32:00,34.0,32.0,29.86,East,79,2.0,6.0,93,0.00,,,0.02,,2013-03-15 20:32:00,
2013-03-15 15:42:00,34.0,32.0,29.86,East,79,2.0,6.0,93,0.00,,,0.02,,2013-03-15 20:42:00,
2013-03-15 15:52:00,33.0,31.0,29.86,ENE,73,3.0,7.0,93,0.00,,,0.02,,2013-03-15 20:52:00,
2013-03-15 16:02:00,33.0,31.0,29.85,SSE,160,3.0,9.0,93,0.00,,,0.02,,2013-03-15 21:02:00,
2013-03-15 16:12:00,33.0,31.0,29.85,SSE,160,3.0,9.0,93,0.00,,,0.02,,2013-03-15 21:12:00,
2013-03-15 16:22:00,33.0,31.0,29.85,ENE,75,4.0,8.0,94,0.01,,,0.03,,2013-03-15 21:22:00,
2013-03-15 16:33:00,33.0,31.0,29.85,NE,53,3.0,8.0,94,0.01,,,0.03,,2013-03-15 21:33:00,
2013-03-15 16:43:00,33.0,31.0,29.85,NE,53,3.0,8.0,94,0.01,,,0.03,,2013-03-15 21:43:00,
2013-03-15 16:53:00,33.0,31.0,29.85,East,82,6.0,9.0,94,0.01,,,0.03,,2013-03-15 21:53:00,
2013-03-15 17:03:00,32.0,30.0,29.85,ENE,63,5.0,11.0,94,0.01,,,0.03,,2013-03-15 22:03:00,
2013-03-15 17:13:00,32.0,30.0,29.85,ENE,63,5.0,11.0,94,0.01,,,0.03,,2013-03-15 22:13:00,
2013-03-15 17:22:00,32.0,31.0,29.85,East,82,3.0,8.0,95,0.00,,,0.03,,2013-03-15 22:22:00,
2013-03-15 17:32:00,32.0,30.0,29.85,East,80,4.0,10.0,94,0.00,,,0.03,,2013-03-15 22:32:00,
2013-03-15 17:42:00,32.0,30.0,29.85,East,80,4.0,10.0,94,0.00,,,0.03,,2013-03-15 22:42:00,
2013-03-15 17:52:00,31.0,29.0,29.83,ENE,73,4.0,12.0,93,0.00,,,0.03,,2013-03-15 22:52:00,
2013-03-15 18:02:00,31.0,29.0,29.83,East,93,5.0,12.0,92,0.00,,,0.03,,2013-03-15 23:02:00,
2013-03-15 18:12:00,31.0,29.0,29.83,East,93,5.0,12.0,92,0.00,,,0.03,,2013-03-15 23:12:00,
2013-03-15 18:22:00,31.0,29.0,29.83,East,80,7.0,14.0,93,0.00,,,0.03,,2013-03-15 23:22:00,
2013-03-15 18:32:00,31.0,29.0,29.83,NNE,25,6.0,12.0,93,0.00,,,0.03,,2013-03-15 23:32:00,
2013-03-15 18:42:00,31.0,29.0,29.83,NNE,25,6.0,12.0,93,0.00,,,0.03,,2013-03-15 23:42:00,
2013-03-15 18:53:00,31.0,29.0,29.83,ENE,74,5.0,10.0,92,0.00,,,0.03,,2013-03-15 23:53:00,
2013-03-15 19:02:00,31.0,29.0,29.83,East,82,8.0,13.0,91,0.00,,,0.03,,2013-03-16 00:02:00,
2013-03-15 19:12:00,31.0,29.0,29.83,East,82,8.0,13.0,91,0.00,,,0.03,,2013-03-16 00:12:00,
2013-03-15 19:22:00,31.0,29.0,29.83,ENE,59,3.0,13.0,92,0.00,,,0.03,,2013-03-16 00:22:00,
2013-03-15 19:32:00,31.0,29.0,29.83,ENE,72,7.0,16.0,91,0.00,,,0.03,,2013-03-16 00:32:00,
2013-03-15 19:42:00,31.0,29.0,29.83,ENE,72,7.0,16.0,91,0.00,,,0.03,,2013-03-16 00:42:00,
2013-03-15 19:52:00,30.0,27.0,29.83,ENE,68,4.0,10.0,90,0.00,,,0.03,,2013-03-16 00:52:00,
2013-03-15 20:02:00,30.0,27.0,29.83,ENE,66,7.0,16.0,90,0.00,,,0.03,,2013-03-16 01:02:00,
2013-03-15 20:12:00,30.0,27.0,29.83,ENE,66,7.0,16.0,90,0.00,,,0.03,,2013-03-16 01:12:00,
2013-03-15 20:21:00,30.0,27.0,29.84,East,88,6.0,10.0,90,0.00,,,0.03,,2013-03-16 01:21:00,
2013-03-15 20:32:00,30.0,27.0,29.84,ESE,107,3.0,8.0,89,0.00,,,0.03,,2013-03-16 01:32:00,
2013-03-15 20:42:00,30.0,27.0,29.84,ESE,107,3.0,8.0,89,0.00,,,0.03,,2013-03-16 01:42:00,
2013-03-15 20:52:00,30.0,26.0,29.84,ENE,71,2.0,11.0,86,0.00,,,0.03,,2013-03-16 01:52:00,
2013-03-15 21:02:00,30.0,26.0,29.84,East,80,4.0,6.0,86,0.00,,,0.03,,2013-03-16 02:02:00,
2013-03-15 21:12:00,30.0,26.0,29.84,East,80,4.0,6.0,86,0.00,,,0.03,,2013-03-16 02:12:00,
2013-03-15 21:23:00,30.0,26.0,29.85,NE,47,2.0,9.0,84,0.00,,,0.03,,2013-03-16 02:23:00,
2013-03-15 21:32:00,30.0,26.0,29.86,ENE,77,3.0,8.0,84,0.00,,,0.03,,2013-03-16 02:32:00,
2013-03-15 21:42:00,30.0,26.0,29.86,ENE,77,3.0,8.0,84,0.00,,,0.03,,2013-03-16 02:42:00,
2013-03-15 21:52:00,30.0,26.0,29.84,ESE,118,4.0,7.0,84,0.00,,,0.03,,2013-03-16 02:52:00,
2013-03-15 22:02:00,30.0,25.0,29.84,East,100,3.0,7.0,83,0.00,,,0.03,,2013-03-16 03:02:00,
2013-03-15 22:12:00,30.0,25.0,29.84,East,100,3.0,7.0,83,0.00,,,0.03,,2013-03-16 03:12:00,
2013-03-15 22:22:00,30.0,25.0,29.83,ENE,73,4.0,9.0,83,0.00,,,0.03,,2013-03-16 03:22:00,
2013-03-15 22:32:00,30.0,25.0,29.83,NE,56,6.0,12.0,82,0.00,,,0.03,,2013-03-16 03:32:00,
2013-03-15 22:43:00,30.0,25.0,29.83,NE,56,6.0,12.0,82,0.00,,,0.03,,2013-03-16 03:43:00,
2013-03-15 22:53:00,31.0,26.0,29.83,East,82,4.0,8.0,82,0.00,,,0.03,,2013-03-16 03:53:00,
2013-03-15 23:02:00,31.0,26.0,29.83,ENE,60,5.0,11.0,83,0.00,,,0.03,,2013-03-16 04:02:00,
2013-03-15 23:12:00,31.0,26.0,29.83,ENE,60,5.0,11.0,83,0.00,,,0.03,,2013-03-16 04:12:00,
2013-03-15 23:22:00,31.0,27.0,29.82,ENE,73,6.0,10.0,85,0.00,,,0.03,,2013-03-16 04:22:00,
2013-03-15 23:32:00,31.0,28.0,29.81,ENE,77,4.0,12.0,89,0.00,,,0.03,,2013-03-16 04:32:00,
2013-03-15 23:42:00,31.0,28.0,29.81,ENE,77,4.0,12.0,89,0.00,,,0.03,,2013-03-16 04:42:00,
2013-03-15 23:52:00,30.0,28.0,29.80,East,94,7.0,12.0,91,0.00,,,0.03,,2013-03-16 04:52:00,